[[{"header":{"parameterUnit":"m.s-1","parameterCategory":2,"la1":30.2991,"la2":30.254,"lo1":-89.0895,"lo2":-89.0444,"dx":0.0017,"dy":0.0017,"nx":28,"ny":28,"refTime":"2022-12-09T15:00:00:Z","depth":"0","parameterNumber":2,"parameterNumberName":"U-component_of_CURRENTS"},"data":[0,0,0,0,0,0,0,0,0,0,0,0,0,0,0,0,0,0,0,0,0,0,0,0,0,0,0,0,0,0,0,0,0,0,0,0,0,0,0,0,0,0,0,0,0,0,0,0,0,0,0,0,0,0,0,0,0,0,0.0703,0.0702,0,0.0675,0.0675,0.0675,0.0642,0.0641,0.064,0.064,0.0598,0.0598,0.0598,0,0,0,0,0,0,0,0,0,0,0,0,0,0.0723,0.0723,0.0703,0.0702,0.0702,0.0675,0.0675,0.0675,0.0642,0.0641,0.064,0.0639,0.0599,0.0598,0.0598,0,0,0,0,0,0,0,0,0,0,0,0,0,0.071,0.0723,0.0703,0.068,0.0677,0.0675,0.0675,0.0675,0.0642,0.0641,0.064,0.0639,0.0599,0.0598,0.0598,0.0618,0,0,0.0596,0.0596,0,0,0,0,0,0,0,0,0.071,0.0709,0.0684,0.0682,0.0679,0.0658,0.0667,0.0654,0.0643,0.0659,0.064,0.0638,0.0616,0.0614,0.0616,0.0616,0.0614,0.0596,0.0596,0.0595,0.0595,0,0,0,0,0,0,0,0.0711,0.071,0.0695,0.0683,0.068,0.0669,0.0666,0.0664,0.0647,0.0657,0.0654,0.0646,0.0615,0.0617,0.0615,0.0613,0.0596,0.0595,0.0595,0.0595,0.0768,0.0773,0,0,0,0,0,0,0.071,0.0711,0.0696,0.0694,0.0688,0.0669,0.0666,0.0668,0.0647,0.0641,0.0647,0.0645,0.0618,0.0615,0.0613,0.0795,0.0595,0.0595,0.0595,0.0764,0.077,0.0775,0,0,0,0,0,0,0.0711,0.071,0.0697,0.0699,0.0696,0.067,0.0673,0.0668,0.0673,0.0639,0.0634,0.0656,0.0617,0.0614,0.0651,0.0786,0.0595,0.0594,0.0758,0.0765,0.0772,0.1056,0,0,0,0,0,0,0.0712,0.0711,0.0725,0.0699,0.0696,0.0712,0.0673,0.0669,0.0668,0.0665,0.0644,0.0639,0.0616,0.0653,0.0651,0.0782,0.0594,0.0751,0.0761,0.077,0.1041,0.1072,0.11,0,0,0,0,0,0.0713,0.0733,0.0726,0.0724,0.0712,0.0713,0.0712,0.069,0.067,0.0687,0.0691,0.064,0.0711,0.0656,0.0652,0.0787,0.0747,0.0758,0.0769,0.1027,0.1066,0.1099,0,0,0,0,0,0,0.0745,0.0731,0.0722,0.0736,0.0733,0.0706,0.0721,0.07,0.0716,0.0719,0.0682,0.068,0.0786,0.0727,0.0666,0.0864,0.073,0.0741,0.0927,0.0963,0.0992,0.1042,0.0593,0,0,0,0,0,0.076,0.0775,0.0756,0.077,0.0774,0.0751,0.0751,0.0738,0.0738,0.0742,0.0737,0.0755,0.083,0.0841,0.0875,0.0949,0.0956,0.1038,0.1068,0.1093,0.1134,0.1256,0.1301,0.0811,0.0811,0.0811,0,0,0.0774,0.077,0.0777,0.0779,0.0777,0.0837,0.075,0.0762,0.0844,0.0737,0.0847,0.0857,0.0875,0.1,0.104,0.0962,0.1244,0.1108,0.113,0.1156,0.1273,0.1321,0.1363,0.0819,0.0818,0.0816,0,0,0.0825,0.0812,0.0853,0.0874,0.0881,0.0888,0.0896,0.0893,0.0924,0.101,0.1004,0.1095,0.1133,0.1219,0.1261,0.1463,0.1408,0.1455,0.1636,0.1756,0.1798,0.1834,0.1937,0.198,0.1455,0.1456,0.1456,0,0.0845,0.0894,0.0865,0.093,0.0962,0.0927,0.0999,0.1054,0.1073,0.1127,0.1081,0.1258,0.1276,0.1484,0.1581,0.1544,0.1568,0.1503,0.1799,0.1835,0.1868,0.1963,0.2007,0.1471,0.1469,0.1468,0.1466,0,0.0938,0.0994,0.1022,0.111,0.1148,0.1192,0.1256,0.1311,0.1339,0.1398,0.1571,0.161,0.1704,0.1758,0.1745,0.2001,0.1932,0.1837,0.1714,0.1935,0.202,0.2062,0.1493,0.1487,0.1483,0.1479,0,0,0.0952,0.1061,0.1081,0.1148,0.1238,0.1277,0.1436,0.1557,0.1658,0.1752,0.1893,0.2104,0.2091,0.214,0.2135,0.2262,0.2553,0.216,0.2159,0.2274,0.2812,0.2688,0.2719,0.2491,0.2499,0.2506,0.2789,0,0.1035,0.1181,0.1217,0.1383,0.1468,0.1503,0.1646,0.1768,0.1854,0.1986,0.2112,0.2241,0.2249,0.2275,0.244,0.2482,0.2669,0.2485,0.257,0.2574,0.2447,0.2767,0.2713,0.2953,0.2828,0.2835,0.284,0,0.1128,0.1218,0.1371,0.1516,0.1551,0.1648,0.1817,0.1932,0.2131,0.2193,0.2362,0.2407,0.265,0.2574,0.289,0.2754,0.2857,0.2904,0.2913,0.2727,0.2528,0.2705,0.3031,0.3012,0.2902,0.2897,0.2893,0,0.1165,0.1327,0.1443,0.15,0.1667,0.1736,0.1817,0.2,0.2095,0.23,0.2365,0.263,0.2703,0.2913,0.3028,0.2975,0.3312,0.3224,0.3249,0.3238,0.3178,0.3147,0.3506,0.3532,0.3531,0.3531,0.353,0,0.1244,0.1348,0.1463,0.1542,0.1676,0.1769,0.1911,0.2021,0.2173,0.2297,0.2454,0.2565,0.2788,0.2964,0.3111,0.3303,0.3397,0.3383,0.3345,0.3272,0.3248,0.3201,0.3175,0.3541,0.3539,0.3537,0.3535,0,0.129,0.1359,0.1504,0.166,0.1698,0.1795,0.1918,0.2016,0.2146,0.2291,0.2347,0.2563,0.278,0.2987,0.3276,0.3359,0.3504,0.3604,0.3489,0.3434,0.3403,0.3392,0.3487,0.3414,0.3735,0.3735,0.3734,0,0.1333,0.1413,0.1565,0.1617,0.168,0.1799,0.1866,0.2,0.2084,0.2276,0.2342,0.2564,0.2711,0.3075,0.3296,0.3577,0.3506,0.3643,0.3569,0.3496,0.346,0.3244,0.316,0.3631,0.363,0.3629,0.3628,0,0.1432,0.1467,0.1569,0.1653,0.1723,0.1798,0.1893,0.1951,0.2087,0.219,0.2313,0.2424,0.2757,0.2992,0.3302,0.3469,0.3495,0.3621,0.3627,0.352,0.324,0.3113,0.3319,0.3617,0.3618,0.3619,0.362,0.362,0.1492,0.1546,0.1631,0.1702,0.1751,0.1777,0.1813,0.1897,0.1988,0.2105,0.2229,0.2368,0.2736,0.3169,0.3288,0.3516,0.3443,0.3546,0.3581,0.3397,0.3218,0.3377,0.3538,0.3539,0.3539,0.354,0.354,0,0.1572,0.1602,0.1667,0.1721,0.1717,0.1751,0.1812,0.1818,0.1875,0.2018,0.211,0.2462,0.277,0.3089,0.3519,0.3532,0.3363,0.349,0.3274,0.3227,0.3504,0.3386,0.342,0.342,0.342,0.342,0.342,0.342,0.1624,0.1678,0.1681,0.1673,0.1672,0.1653,0.1662,0.1675,0.1762,0.1912,0.209,0.2257,0.2776,0.3374,0.3638,0.3589,0.3403,0.3235,0.3205,0.3514,0.3522,0.3529,0.3417,0.3457,0.3458,0.2791,0.2787,0.2784]},{"header":{"parameterUnit":"m.s-1","parameterCategory":2,"la1":30.2991,"la2":30.254,"lo1":-89.0895,"lo2":-89.0444,"dx":0.0017,"dy":0.0017,"nx":28,"ny":28,"refTime":"2022-12-09T15:00:00:Z","depth":"0","parameterNumber":3,"parameterNumberName":"V-component_of_CURRENTS"},"data":[0,0,0,0,0,0,0,0,0,0,0,0,0,0,0,0,0,0,0,0,0,0,0,0,0,0,0,0,0,0,0,0,0,0,0,0,0,0,0,0,0,0,0,0,0,0,0,0,0,0,0,0,0,0,0,0,0,0,0.0055,0.0055,0,0.0078,0.0078,0.0079,0.0133,0.0134,0.0135,0.0136,0.011,0.0108,0.0107,0,0,0,0,0,0,0,0,0,0,0,0,0,0.0006,0.0007,0.0055,0.0055,0.0055,0.0078,0.0078,0.0079,0.0133,0.0134,0.0135,0.0136,0.011,0.0108,0.0106,0,0,0,0,0,0,0,0,0,0,0,0,0,0.0029,0.0007,0.0055,0.0084,0.0087,0.0078,0.0078,0.0079,0.0132,0.0134,0.0135,0.0137,0.0111,0.0109,0.0106,0.006,0,0,0.0099,0.0097,0,0,0,0,0,0,0,0,0.0027,0.0031,0.0079,0.0082,0.0085,0.0103,0.0052,0.007,0.0132,0.0116,0.0136,0.0138,0.0101,0.01,0.0103,0.0059,0.0058,0.0098,0.0097,0.0096,0.0095,0,0,0,0,0,0,0,0.0026,0.003,0.0065,0.008,0.0083,0.0078,0.0084,0.0055,0.01,0.0118,0.0121,0.0122,0.0103,0.0105,0.0102,0.0057,0.0098,0.0096,0.0095,0.0094,0.0047,0.0048,0,0,0,0,0,0,0.0022,0.0028,0.0064,0.0066,0.0058,0.0078,0.0084,0.0097,0.0101,0.0103,0.012,0.0124,0.0109,0.0105,0.0102,0.0186,0.0096,0.0093,0.0092,0.0047,0.0047,0.0048,0,0,0,0,0,0,0.0021,0.0025,0.0063,0.0046,0.005,0.0078,0.0091,0.0096,0.0101,0.0104,0.0106,0.0119,0.011,0.0105,0.0085,0.018,0.0092,0.009,0.0047,0.0047,0.0047,0.0266,0,0,0,0,0,0,0.002,0.0025,0.002,0.0046,0.0051,0.0045,0.0089,0.0096,0.0098,0.0103,0.0102,0.0102,0.011,0.0089,0.0082,0.0175,0.0088,0.0046,0.0047,0.0047,0.0258,0.0274,0.0287,0,0,0,0,0,0.0018,0.0003,0.002,0.0023,0.0048,0.0043,0.0044,0.007,0.0096,0.0083,0.0099,0.0102,0.0089,0.0086,0.0079,0.0174,0.0046,0.0047,0.0047,0.0252,0.0271,0.0287,0,0,0,0,0,0,-0.0026,0.0007,0.0027,0.0022,0.0027,0.0052,0.0037,0.0061,0.0064,0.0074,0.0087,0.0086,0.0113,0.0073,0.007,0.0151,0.0074,0.0073,0.0232,0.0249,0.0263,0.0335,0.0086,0,0,0,0,0,-0.0038,-0.0036,-0.001,-0.0018,-0.0017,0.001,0.0009,0.0031,0.0043,0.0047,0.0061,0.0072,0.0106,0.0119,0.0108,0.0132,0.0109,0.0185,0.02,0.0213,0.0259,0.0239,0.0259,0.0049,0.0049,0.0049,0,0,-0.0056,-0.0041,-0.0038,-0.0028,-0.0019,0.0052,0.0013,0.001,0.0112,0.0039,0.014,0.0102,0.0111,0.017,0.018,0.0157,0.0264,0.0214,0.0227,0.0266,0.0242,0.0263,0.0282,0.005,0.005,0.005,0,0,-0.005,-0.0079,-0.0044,-0.0016,0.0002,0.0027,0.0029,0.0057,0.0099,0.0157,0.0164,0.0174,0.0198,0.0255,0.0288,0.0352,0.0323,0.0336,0.0501,0.0481,0.05,0.0517,0.055,0.0568,0.0365,0.0366,0.0366,0,-0.0062,0.0014,-0.0045,0.0031,0.0089,0.0039,0.014,0.0176,0.0206,0.0269,0.0211,0.029,0.0274,0.0418,0.0463,0.0403,0.0382,0.0456,0.0508,0.0523,0.0536,0.0566,0.0583,0.0376,0.0375,0.0374,0.0373,0,0.0022,0.0098,0.011,0.0226,0.0248,0.0301,0.036,0.0391,0.0421,0.0488,0.0566,0.0512,0.0579,0.0571,0.0562,0.0668,0.0622,0.0519,0.0487,0.0572,0.0596,0.061,0.0391,0.0388,0.0384,0.0382,0,0,0.0012,0.0154,0.0176,0.0299,0.0373,0.0419,0.0548,0.0676,0.0808,0.079,0.095,0.0977,0.0914,0.094,0.0881,0.0871,0.0957,0.0759,0.0753,0.0835,0.0955,0.0874,0.088,0.0851,0.0854,0.0856,0.095,0,0.0132,0.0353,0.0366,0.0593,0.0732,0.0734,0.0869,0.0967,0.1026,0.1143,0.1108,0.1197,0.1073,0.1085,0.1068,0.0959,0.0995,0.0945,0.0823,0.0822,0.0773,0.0893,0.0803,0.0873,0.0963,0.0965,0.0967,0,0.0284,0.0413,0.0671,0.0869,0.0914,0.1025,0.1222,0.1324,0.1454,0.1483,0.1531,0.1494,0.1524,0.1353,0.1282,0.1245,0.1159,0.1055,0.1054,0.0918,0.0765,0.0788,0.0893,0.0662,0.0986,0.0985,0.0983,0,0.0441,0.0647,0.0874,0.0955,0.1143,0.1243,0.1312,0.1456,0.1567,0.1693,0.1753,0.1763,0.1736,0.1619,0.1436,0.1364,0.1319,0.1183,0.1058,0.1052,0.0925,0.0903,0.0829,0.1182,0.1182,0.1181,0.1181,0,0.0651,0.0836,0.0971,0.1125,0.1343,0.1396,0.1613,0.1685,0.18,0.1938,0.192,0.1974,0.1785,0.1731,0.1555,0.1366,0.1423,0.1146,0.108,0.0997,0.0981,0.0726,0.0594,0.1185,0.1184,0.1184,0.1183,0,0.0865,0.0966,0.1231,0.1412,0.146,0.1623,0.1757,0.1902,0.1967,0.2127,0.2164,0.2157,0.2057,0.1903,0.1712,0.1509,0.1199,0.1275,0.1223,0.1149,0.0755,0.0638,0.0608,0.0442,0.1153,0.1151,0.115,0,0.1017,0.1189,0.1422,0.1535,0.1626,0.1809,0.192,0.2002,0.2123,0.2216,0.2293,0.2275,0.2241,0.1971,0.1644,0.1402,0.12,0.1158,0.0995,0.0781,0.0602,0.0592,0.0452,0.0938,0.0935,0.0933,0.0931,0,0.1274,0.1354,0.1528,0.1734,0.1885,0.2046,0.2186,0.23,0.2369,0.2462,0.2506,0.2479,0.2209,0.1879,0.1556,0.1347,0.0949,0.11,0.0878,0.0457,0.0445,0.0235,0.0866,0.0911,0.0913,0.0914,0.0916,0.0916,0.1414,0.1555,0.1725,0.1914,0.2071,0.2226,0.2348,0.2459,0.26,0.2702,0.2634,0.255,0.2083,0.1586,0.1298,0.0724,0.0776,0.0509,0.0406,0.0437,0.0207,0.0828,0.0771,0.0772,0.0773,0.0774,0.0775,0,0.1551,0.167,0.1861,0.2064,0.2211,0.227,0.2474,0.2566,0.2692,0.2767,0.2765,0.2396,0.179,0.1259,0.0505,0.0099,-0.0038,-0.0102,-0.0166,-0.0272,0.0274,0.0184,-0.0005,-0.0005,-0.0005,-0.0005,-0.0004,-0.0004,0.163,0.1803,0.1879,0.211,0.2235,0.2412,0.2523,0.2663,0.2749,0.2786,0.2693,0.2607,0.2184,0.0805,-0.0167,-0.0453,-0.0771,-0.0762,-0.0914,-0.06,-0.0551,-0.0505,-0.0621,-0.0975,-0.0976,-0.144,-0.1445,-0.1449]}],[{"header":{"parameterUnit":"m.s-1","parameterCategory":2,"la1":30.2991,"la2":30.254,"lo1":-89.0895,"lo2":-89.0444,"dx":0.0017,"dy":0.0017,"nx":28,"ny":28,"refTime":"2022-12-09T15:00:00:Z","depth":"2","parameterNumber":2,"parameterNumberName":"U-component_of_CURRENTS"},"data":[0,0,0,0,0,0,0,0,0,0,0,0,0,0,0,0,0,0,0,0,0,0,0,0,0,0,0,0,0,0,0,0,0,0,0,0,0,0,0,0,0,0,0,0,0,0,0,0,0,0,0,0,0,0,0,0,0,0,0.0688,0.0689,0,0.0688,0.0687,0.0687,0.0637,0.0636,0.0635,0.0635,0.055,0.0549,0.0547,0,0,0,0,0,0,0,0,0,0,0,0,0,0.0663,0.0664,0.0688,0.0689,0.0689,0.0688,0.0687,0.0687,0.0637,0.0636,0.0635,0.0634,0.0551,0.0549,0.0547,0,0,0,0,0,0,0,0,0,0,0,0,0,0.0665,0.0664,0.0688,0.0668,0.0666,0.0688,0.0687,0.0687,0.0638,0.0636,0.0635,0.0634,0.0551,0.0549,0.0547,0.056,0,0,0.054,0.0539,0,0,0,0,0,0,0,0,0.0665,0.0666,0.067,0.0669,0.0668,0.0665,0.0648,0.0642,0.0638,0.0643,0.0635,0.0633,0.0585,0.058,0.0577,0.0556,0.0552,0.054,0.0539,0.0538,0.0537,0,0,0,0,0,0,0,0.0665,0.0665,0.0683,0.0671,0.0669,0.0665,0.0663,0.0647,0.0616,0.0643,0.064,0.0648,0.0583,0.0579,0.0575,0.0551,0.054,0.0538,0.0537,0.0536,0.0564,0.0566,0,0,0,0,0,0,0.0675,0.0665,0.0683,0.0684,0.0668,0.0667,0.0664,0.0663,0.0618,0.0612,0.0649,0.0646,0.0584,0.0577,0.0571,0.0643,0.0538,0.0536,0.0535,0.0562,0.0565,0.0567,0,0,0,0,0,0,0.0675,0.0677,0.0683,0.0679,0.068,0.0669,0.0668,0.0664,0.0664,0.0625,0.0616,0.0653,0.0582,0.0574,0.0563,0.0637,0.0535,0.0533,0.056,0.0563,0.0566,0.0748,0,0,0,0,0,0,0.0674,0.0676,0.0687,0.0679,0.0681,0.0703,0.067,0.0665,0.0673,0.0668,0.0626,0.0616,0.0581,0.0566,0.0561,0.0632,0.0531,0.0557,0.0561,0.0565,0.0739,0.0757,0.0772,0,0,0,0,0,0.0673,0.069,0.0687,0.069,0.0693,0.0705,0.0705,0.0689,0.0674,0.0682,0.0652,0.0618,0.0587,0.0566,0.0559,0.0631,0.0556,0.056,0.0565,0.0732,0.0753,0.0771,0,0,0,0,0,0,0.0684,0.0687,0.0683,0.07,0.0708,0.0698,0.0713,0.07,0.0685,0.068,0.0633,0.0622,0.0647,0.0603,0.0581,0.0648,0.0571,0.0574,0.0701,0.072,0.0736,0.079,0.0529,0,0,0,0,0,0.0695,0.071,0.071,0.0728,0.0734,0.0727,0.0733,0.0723,0.0709,0.0702,0.0678,0.0658,0.0662,0.0659,0.0643,0.0672,0.0631,0.0715,0.0732,0.0746,0.0784,0.0787,0.0808,0.0582,0.0582,0.0582,0,0,0.0709,0.0713,0.0723,0.0733,0.0738,0.0773,0.0726,0.0743,0.0778,0.0696,0.0732,0.0709,0.0679,0.072,0.0728,0.0692,0.0779,0.0752,0.0765,0.0795,0.0794,0.0816,0.0836,0.0585,0.0585,0.0584,0,0,0.0756,0.0746,0.0781,0.0789,0.0806,0.0809,0.0819,0.082,0.0823,0.0852,0.0816,0.0843,0.0825,0.0844,0.0846,0.0941,0.0863,0.0926,0.106,0.1063,0.1082,0.1099,0.1041,0.1051,0.0938,0.0939,0.0939,0,0.0775,0.0806,0.0795,0.0832,0.0851,0.0834,0.088,0.0894,0.0894,0.0892,0.0883,0.0911,0.0903,0.0969,0.103,0.0987,0.0941,0.0993,0.1088,0.1103,0.1117,0.1054,0.1063,0.0948,0.0947,0.0946,0.0945,0,0.0848,0.0872,0.0892,0.0938,0.0967,0.0989,0.1015,0.1036,0.1044,0.1039,0.1089,0.1102,0.1102,0.114,0.1133,0.1236,0.1152,0.1106,0.1045,0.1151,0.1076,0.1082,0.0961,0.0958,0.0955,0.0953,0,0,0.0882,0.093,0.0939,0.0969,0.101,0.104,0.1111,0.1143,0.1184,0.1203,0.1244,0.1336,0.1306,0.1312,0.1308,0.138,0.146,0.1315,0.131,0.1271,0.1418,0.1471,0.1481,0.1423,0.1426,0.1428,0.1314,0,0.0936,0.1001,0.1031,0.1117,0.1146,0.1164,0.123,0.126,0.1291,0.132,0.1336,0.1381,0.1374,0.1411,0.1465,0.1444,0.1489,0.1493,0.131,0.1305,0.1353,0.1497,0.1418,0.1322,0.1319,0.132,0.132,0,0.0999,0.1025,0.1102,0.1173,0.1194,0.1262,0.1347,0.1403,0.143,0.145,0.1476,0.1456,0.1526,0.1533,0.1542,0.1529,0.1509,0.1517,0.1509,0.1513,0.1375,0.1221,0.1332,0.1329,0.1328,0.1328,0.1327,0,0.0998,0.1083,0.1139,0.116,0.1244,0.1301,0.1356,0.1423,0.1463,0.1531,0.1563,0.1568,0.1595,0.1577,0.1579,0.1545,0.1598,0.1502,0.1525,0.1521,0.1403,0.1389,0.1559,0.1559,0.156,0.156,0.156,0,0.1015,0.1063,0.1144,0.1162,0.1246,0.1317,0.1418,0.1475,0.1544,0.1564,0.1614,0.1658,0.1632,0.163,0.1589,0.1585,0.1562,0.16,0.1539,0.146,0.1453,0.1417,0.1402,0.1556,0.1556,0.1557,0.1558,0,0.0999,0.1042,0.1114,0.1208,0.1241,0.1308,0.1425,0.1471,0.1582,0.1621,0.1641,0.1703,0.1715,0.1696,0.1681,0.1622,0.1608,0.1623,0.1525,0.1462,0.1495,0.149,0.1565,0.1567,0.1569,0.157,0.1571,0,0.0992,0.1021,0.1127,0.1145,0.1191,0.1287,0.132,0.1453,0.1484,0.1632,0.1609,0.1712,0.1713,0.1732,0.172,0.1659,0.1672,0.1564,0.1542,0.1586,0.1516,0.1508,0.1501,0.1394,0.1394,0.1394,0.1394,0,0.0972,0.1021,0.1053,0.1088,0.1141,0.1207,0.1265,0.1301,0.1419,0.1486,0.1553,0.1605,0.1694,0.1665,0.1704,0.1636,0.156,0.1559,0.1632,0.1455,0.1431,0.136,0.1357,0.1391,0.1391,0.1391,0.1391,0.1391,0.095,0.0962,0.0997,0.103,0.1074,0.1105,0.1136,0.1182,0.1246,0.1333,0.1416,0.1502,0.1565,0.1601,0.1557,0.1545,0.1602,0.1503,0.15,0.1498,0.155,0.1536,0.1519,0.152,0.152,0.1521,0.1522,0,0.0895,0.0901,0.0922,0.0962,0.0972,0.1037,0.1067,0.1082,0.1115,0.123,0.1308,0.1291,0.1352,0.1424,0.1431,0.1433,0.1354,0.1355,0.1256,0.1262,0.1267,0.1303,0.1208,0.1206,0.1205,0.1204,0,0,0.0868,0.0848,0.0859,0.0862,0.0885,0.0904,0.0918,0.0942,0.1016,0.1072,0.1152,0.131,0.1412,0.1303,0.1301,0.1277,0.1239,0.1217,0.1479,0.1371,0.1374,0.1377,0.1446,0,0,0,0,0]},{"header":{"parameterUnit":"m.s-1","parameterCategory":2,"la1":30.2991,"la2":30.254,"lo1":-89.0895,"lo2":-89.0444,"dx":0.0017,"dy":0.0017,"nx":28,"ny":28,"refTime":"2022-12-09T15:00:00:Z","depth":"2","parameterNumber":3,"parameterNumberName":"V-component_of_CURRENTS"},"data":[0,0,0,0,0,0,0,0,0,0,0,0,0,0,0,0,0,0,0,0,0,0,0,0,0,0,0,0,0,0,0,0,0,0,0,0,0,0,0,0,0,0,0,0,0,0,0,0,0,0,0,0,0,0,0,0,0,0,-0.0352,-0.0353,0,-0.0401,-0.0401,-0.0401,-0.0407,-0.0407,-0.0407,-0.0407,-0.0463,-0.0465,-0.0466,0,0,0,0,0,0,0,0,0,0,0,0,0,-0.0295,-0.0295,-0.0352,-0.0353,-0.0354,-0.0401,-0.0401,-0.0401,-0.0407,-0.0407,-0.0407,-0.0406,-0.0462,-0.0464,-0.0466,0,0,0,0,0,0,0,0,0,0,0,0,0,-0.0325,-0.0295,-0.0352,-0.0365,-0.0367,-0.0401,-0.0401,-0.0401,-0.0407,-0.0407,-0.0407,-0.0406,-0.0462,-0.0464,-0.0467,-0.0486,0,0,-0.0474,-0.0475,0,0,0,0,0,0,0,0,-0.0324,-0.0327,-0.0362,-0.0364,-0.0366,-0.0401,-0.0402,-0.0431,-0.0407,-0.0388,-0.0407,-0.0406,-0.0446,-0.0449,-0.0453,-0.0489,-0.0491,-0.0474,-0.0476,-0.0477,-0.0478,0,0,0,0,0,0,0,-0.0321,-0.0325,-0.0367,-0.0363,-0.0366,-0.038,-0.0383,-0.0407,-0.0414,-0.0389,-0.0391,-0.0402,-0.0446,-0.0451,-0.0455,-0.0492,-0.0474,-0.0476,-0.0478,-0.0479,-0.0544,-0.0544,0,0,0,0,0,0,-0.0322,-0.0323,-0.0366,-0.0369,-0.0348,-0.0381,-0.0384,-0.0387,-0.0414,-0.0419,-0.0403,-0.0403,-0.0447,-0.0452,-0.0457,-0.047,-0.0477,-0.0479,-0.0481,-0.0543,-0.0544,-0.0544,0,0,0,0,0,0,-0.032,-0.0324,-0.0364,-0.0351,-0.0357,-0.0382,-0.0385,-0.0388,-0.0385,-0.0425,-0.0429,-0.0395,-0.0447,-0.0454,-0.0494,-0.0473,-0.048,-0.0482,-0.0543,-0.0543,-0.0544,-0.0504,0,0,0,0,0,0,-0.0318,-0.0323,-0.0322,-0.035,-0.0358,-0.0375,-0.0386,-0.0389,-0.0394,-0.0394,-0.042,-0.0426,-0.0447,-0.049,-0.0496,-0.0476,-0.0484,-0.0543,-0.0543,-0.0544,-0.0505,-0.0503,-0.0501,0,0,0,0,0,-0.0315,-0.0315,-0.0321,-0.0326,-0.0356,-0.0376,-0.038,-0.0395,-0.0394,-0.039,-0.0426,-0.0424,-0.0496,-0.0493,-0.05,-0.048,-0.0542,-0.0543,-0.0544,-0.0506,-0.0503,-0.0501,0,0,0,0,0,0,-0.0298,-0.0317,-0.0324,-0.0331,-0.0349,-0.0378,-0.0382,-0.0388,-0.041,-0.0412,-0.0442,-0.0451,-0.0468,-0.0491,-0.0486,-0.0501,-0.0513,-0.0515,-0.0481,-0.0479,-0.0478,-0.0444,-0.0486,0,0,0,0,0,-0.0292,-0.0294,-0.0317,-0.0326,-0.0331,-0.0352,-0.0361,-0.0369,-0.0397,-0.0404,-0.043,-0.0458,-0.0477,-0.0493,-0.0514,-0.0536,-0.0575,-0.0524,-0.0522,-0.052,-0.0499,-0.0566,-0.0568,-0.0546,-0.0546,-0.0546,0,0,-0.0294,-0.0304,-0.0308,-0.0322,-0.0337,-0.0339,-0.0356,-0.0366,-0.0373,-0.0409,-0.0432,-0.0451,-0.0482,-0.0501,-0.0509,-0.0517,-0.0554,-0.0521,-0.0519,-0.0498,-0.0567,-0.0569,-0.0571,-0.0546,-0.0546,-0.0546,0,0,-0.029,-0.03,-0.0293,-0.0306,-0.0322,-0.033,-0.0327,-0.0351,-0.0364,-0.0391,-0.0413,-0.0426,-0.0468,-0.0481,-0.0493,-0.0495,-0.0538,-0.0499,-0.0466,-0.0532,-0.0535,-0.0537,-0.0614,-0.0623,-0.0503,-0.0503,-0.0503,0,-0.0289,-0.0294,-0.0297,-0.0296,-0.0302,-0.032,-0.031,-0.0332,-0.0369,-0.0402,-0.0392,-0.0435,-0.0451,-0.0469,-0.0459,-0.0485,-0.0543,-0.0471,-0.0529,-0.0532,-0.0535,-0.0614,-0.0624,-0.0501,-0.0501,-0.0501,-0.0502,0,-0.0277,-0.0291,-0.0293,-0.0289,-0.0277,-0.0292,-0.0302,-0.0322,-0.0333,-0.0372,-0.0394,-0.0403,-0.044,-0.0425,-0.0437,-0.0456,-0.0498,-0.0516,-0.0532,-0.0535,-0.0618,-0.063,-0.0498,-0.0499,-0.05,-0.05,0,0,-0.0256,-0.0281,-0.0282,-0.0275,-0.0282,-0.0261,-0.0284,-0.0318,-0.0329,-0.0365,-0.0395,-0.0389,-0.0409,-0.042,-0.0424,-0.0438,-0.0503,-0.0477,-0.0481,-0.0546,-0.0673,-0.0603,-0.061,-0.0545,-0.0547,-0.0547,-0.0731,0,-0.0255,-0.0272,-0.0254,-0.0238,-0.0249,-0.0251,-0.025,-0.0278,-0.0312,-0.036,-0.0396,-0.0405,-0.0409,-0.0389,-0.0429,-0.0481,-0.0529,-0.0452,-0.0664,-0.0669,-0.0601,-0.0618,-0.0575,-0.0724,-0.0743,-0.0745,-0.0746,0,-0.0232,-0.0264,-0.0264,-0.0232,-0.0219,-0.0178,-0.0164,-0.0167,-0.0262,-0.0281,-0.034,-0.0398,-0.0445,-0.0419,-0.0551,-0.0513,-0.0591,-0.0617,-0.0627,-0.0573,-0.0619,-0.072,-0.0746,-0.0767,-0.0765,-0.0764,-0.0762,0,-0.023,-0.0234,-0.0234,-0.0238,-0.0218,-0.0176,-0.0134,-0.0165,-0.0167,-0.0235,-0.0239,-0.0365,-0.0381,-0.0506,-0.0599,-0.0601,-0.0729,-0.0769,-0.0783,-0.0782,-0.0785,-0.078,-0.086,-0.086,-0.0859,-0.0859,-0.0858,0,-0.0244,-0.0247,-0.0227,-0.024,-0.0194,-0.0136,-0.0067,-0.0074,-0.0075,-0.0097,-0.0186,-0.0196,-0.0394,-0.0519,-0.0629,-0.0737,-0.0793,-0.0769,-0.0814,-0.0771,-0.0762,-0.0821,-0.0814,-0.0866,-0.0864,-0.0863,-0.0862,0,-0.0253,-0.0279,-0.0262,-0.022,-0.0203,-0.0143,-0.002,-0.001,0.0044,0.0017,-0.0001,-0.0121,-0.0258,-0.0442,-0.0637,-0.0735,-0.0853,-0.0873,-0.0802,-0.0832,-0.0874,-0.0863,-0.0964,-0.0963,-0.0962,-0.0961,-0.096,0,-0.028,-0.0288,-0.0234,-0.0225,-0.0198,-0.0108,-0.0091,-0.0003,0.0002,0.0072,0.0016,-0.0073,-0.0178,-0.0411,-0.0594,-0.0807,-0.0824,-0.0868,-0.0833,-0.0845,-0.0881,-0.0871,-0.0862,-0.0864,-0.0862,-0.0861,-0.086,0,-0.0322,-0.0276,-0.025,-0.0231,-0.0196,-0.0141,-0.0086,-0.0061,0.0014,0.0046,0.0063,0.0029,-0.0164,-0.0349,-0.0569,-0.0698,-0.0836,-0.0846,-0.0915,-0.0799,-0.0753,-0.0786,-0.0781,-0.085,-0.0851,-0.0852,-0.0852,-0.0853,-0.0312,-0.0292,-0.0238,-0.0196,-0.0177,-0.0146,-0.0082,-0.0044,0.0017,0.0095,0.0057,0.0096,-0.0097,-0.0342,-0.0535,-0.0719,-0.0753,-0.0821,-0.0825,-0.0831,-0.074,-0.069,-0.0762,-0.0762,-0.0763,-0.0763,-0.0763,0,-0.0299,-0.0271,-0.0226,-0.0164,-0.0113,-0.011,-0.008,-0.0013,0.0058,0.0105,0.0164,0.0095,-0.0066,-0.0248,-0.0501,-0.0676,-0.0713,-0.0722,-0.0737,-0.0746,-0.0755,-0.0661,-0.0662,-0.0662,-0.0662,-0.0662,0,0,-0.0299,-0.0251,-0.0214,-0.0113,-0.0066,-0.001,0.002,0.008,0.0142,0.024,0.0297,0.0273,0.0038,-0.0113,-0.0365,-0.0503,-0.0584,-0.053,-0.0597,-0.0596,-0.0601,-0.08,-0.0664,0,0,0,0,0]}],[{"header":{"parameterUnit":"m.s-1","parameterCategory":2,"la1":30.2991,"la2":30.254,"lo1":-89.0895,"lo2":-89.0444,"dx":0.0017,"dy":0.0017,"nx":28,"ny":28,"refTime":"2022-12-09T15:00:00:Z","depth":"4","parameterNumber":2,"parameterNumberName":"U-component_of_CURRENTS"},"data":[0,0,0,0,0,0,0,0,0,0,0,0,0,0,0,0,0,0,0,0,0,0,0,0,0,0,0,0,0,0,0,0,0,0,0,0,0,0,0,0,0,0,0,0,0,0,0,0,0,0,0,0,0,0,0,0,0,0,0.0354,0.0355,0,0.0405,0.0405,0.0406,0.0451,0.0452,0.0452,0.0453,0.0555,0.0557,0.0559,0,0,0,0,0,0,0,0,0,0,0,0,0,0.0309,0.0309,0.0354,0.0355,0.0355,0.0405,0.0405,0.0406,0.0451,0.0452,0.0452,0.0453,0.0554,0.0557,0.056,0,0,0,0,0,0,0,0,0,0,0,0,0,0.034,0.0309,0.0354,0.0384,0.0387,0.0405,0.0405,0.0406,0.0451,0.0452,0.0453,0.0453,0.0553,0.0557,0.056,0.0563,0,0,0.057,0.0571,0,0,0,0,0,0,0,0,0.0338,0.0342,0.0379,0.0382,0.0386,0.0423,0.0427,0.0461,0.0451,0.0426,0.0453,0.0454,0.0515,0.0522,0.0528,0.0568,0.0572,0.057,0.0572,0.0574,0.0575,0,0,0,0,0,0,0,0.0336,0.034,0.0374,0.038,0.0384,0.04,0.0405,0.0434,0.0466,0.0428,0.0432,0.0438,0.0518,0.0525,0.0531,0.0574,0.057,0.0573,0.0575,0.0576,0.0658,0.0658,0,0,0,0,0,0,0.0329,0.0338,0.0372,0.0375,0.0364,0.04,0.0406,0.041,0.0465,0.0473,0.0437,0.044,0.0519,0.0527,0.0535,0.0585,0.0574,0.0577,0.0579,0.0658,0.0658,0.0658,0,0,0,0,0,0,0.0328,0.0332,0.037,0.0358,0.0364,0.04,0.0404,0.041,0.0434,0.0471,0.0481,0.0456,0.052,0.053,0.0569,0.0588,0.0578,0.0581,0.0657,0.0658,0.0658,0.0659,0,0,0,0,0,0,0.0327,0.0331,0.0337,0.0358,0.0365,0.0393,0.0403,0.0411,0.0436,0.044,0.049,0.0499,0.0521,0.0564,0.0572,0.0593,0.0584,0.0657,0.0657,0.0658,0.0659,0.0659,0.066,0,0,0,0,0,0.0325,0.0331,0.0337,0.0342,0.037,0.0394,0.0399,0.0427,0.0436,0.045,0.0478,0.0499,0.0572,0.0567,0.0577,0.0598,0.0657,0.0657,0.0658,0.0659,0.0659,0.066,0,0,0,0,0,0,0.0319,0.0337,0.0344,0.0357,0.0379,0.0402,0.042,0.0432,0.0463,0.0475,0.0503,0.0514,0.0554,0.0572,0.0565,0.062,0.0618,0.062,0.0615,0.0616,0.0616,0.0622,0.0586,0,0,0,0,0,0.0317,0.0328,0.0347,0.0361,0.0372,0.0396,0.041,0.043,0.0457,0.0472,0.0504,0.0535,0.056,0.0584,0.061,0.0644,0.0653,0.0662,0.0663,0.0663,0.0673,0.067,0.0671,0.0659,0.0659,0.0659,0,0,0.0319,0.0331,0.0338,0.036,0.038,0.0403,0.0408,0.0438,0.0461,0.0479,0.0525,0.0541,0.0567,0.0603,0.0623,0.0624,0.0676,0.0664,0.0664,0.0674,0.0671,0.0672,0.0673,0.066,0.066,0.066,0,0,0.0332,0.034,0.0356,0.0374,0.0406,0.0419,0.0429,0.0461,0.0482,0.052,0.0532,0.0552,0.0607,0.0618,0.0631,0.0648,0.0675,0.0666,0.0683,0.0679,0.068,0.0681,0.0714,0.0718,0.0671,0.0671,0.0671,0,0.0338,0.0358,0.0366,0.0389,0.0411,0.0427,0.0456,0.0473,0.0515,0.0534,0.0542,0.0594,0.0611,0.0637,0.0645,0.0651,0.0669,0.0678,0.068,0.0681,0.0682,0.0715,0.0719,0.0671,0.0671,0.0671,0.0671,0,0.0362,0.0385,0.0398,0.043,0.0451,0.0481,0.0503,0.0528,0.0552,0.0571,0.0608,0.0619,0.0656,0.0654,0.0661,0.0678,0.0698,0.0676,0.0677,0.0683,0.0718,0.0723,0.0671,0.0671,0.0671,0.0671,0,0,0.0367,0.0408,0.0418,0.0436,0.0479,0.0495,0.0534,0.057,0.0595,0.0624,0.0661,0.0676,0.0688,0.0702,0.0703,0.0693,0.0713,0.0697,0.0697,0.0731,0.0743,0.0734,0.0738,0.0694,0.0694,0.0694,0.0773,0,0.0392,0.0436,0.0457,0.0501,0.052,0.0549,0.058,0.0612,0.0642,0.0679,0.0683,0.072,0.0705,0.0728,0.0717,0.0715,0.0723,0.0697,0.0733,0.0735,0.0725,0.0741,0.0695,0.0776,0.0777,0.0778,0.0778,0,0.0409,0.0437,0.0487,0.0528,0.0542,0.0576,0.0626,0.066,0.0705,0.073,0.0763,0.0778,0.0796,0.0768,0.0776,0.0768,0.0768,0.0752,0.0754,0.0748,0.0733,0.0765,0.0786,0.0786,0.0785,0.0785,0.0784,0,0.0393,0.0453,0.0493,0.0511,0.0563,0.0598,0.0636,0.0684,0.0711,0.0776,0.0799,0.0829,0.085,0.0842,0.0836,0.0817,0.0837,0.0802,0.0797,0.0798,0.0783,0.078,0.0805,0.0805,0.0805,0.0805,0.0804,0,0.0402,0.0431,0.0493,0.0512,0.0559,0.0604,0.0658,0.0697,0.0755,0.0788,0.0833,0.0851,0.0865,0.0881,0.0867,0.0862,0.0872,0.0814,0.0812,0.0785,0.0782,0.0787,0.0784,0.0808,0.0807,0.0806,0.0806,0,0.0379,0.0422,0.0455,0.0523,0.055,0.0587,0.0666,0.0694,0.0759,0.0806,0.0832,0.0883,0.0917,0.0931,0.0931,0.0902,0.0892,0.0886,0.0899,0.0894,0.0855,0.0851,0.0895,0.0896,0.0896,0.0896,0.0896,0,0.0378,0.0392,0.0453,0.0478,0.0519,0.0581,0.0617,0.0692,0.0722,0.0808,0.0821,0.0891,0.0921,0.0932,0.0939,0.0954,0.0926,0.0934,0.0854,0.0868,0.0862,0.0858,0.0854,0.0896,0.0896,0.0896,0.0897,0,0.0363,0.038,0.0406,0.0458,0.0504,0.0543,0.061,0.0627,0.0712,0.076,0.0814,0.0853,0.0899,0.0921,0.0956,0.0943,0.0932,0.0935,0.0933,0.0858,0.087,0.0863,0.0858,0.0897,0.0897,0.0897,0.0897,0,0.0345,0.0356,0.039,0.0436,0.048,0.0516,0.0549,0.0604,0.0648,0.0748,0.0761,0.0835,0.0893,0.0916,0.093,0.0948,0.092,0.0877,0.0877,0.0877,0.0831,0.0841,0.0869,0,0,0,0,0,0.0328,0.034,0.0372,0.0418,0.0455,0.0493,0.0546,0.0578,0.0651,0.068,0.073,0.0778,0.0835,0.0862,0.0875,0.091,0.0913,0.092,0.0861,0.0901,0.09,0.0846,0,0,0,0,0,0,0.0311,0.0338,0.036,0.0398,0.0428,0.0475,0.051,0.0557,0.0579,0.0653,0.0685,0.0745,0.0801,0.0831,0.0866,0.0876,0.0828,0.0967,0.0965,0.0901,0.09,0.09,0.0844,0,0,0,0,0]},{"header":{"parameterUnit":"m.s-1","parameterCategory":2,"la1":30.2991,"la2":30.254,"lo1":-89.0895,"lo2":-89.0444,"dx":0.0017,"dy":0.0017,"nx":28,"ny":28,"refTime":"2022-12-09T15:00:00:Z","depth":"4","parameterNumber":3,"parameterNumberName":"V-component_of_CURRENTS"},"data":[0,0,0,0,0,0,0,0,0,0,0,0,0,0,0,0,0,0,0,0,0,0,0,0,0,0,0,0,0,0,0,0,0,0,0,0,0,0,0,0,0,0,0,0,0,0,0,0,0,0,0,0,0,0,0,0,0,0,-0.008,-0.008,0,-0.0089,-0.0089,-0.0089,-0.014,-0.0142,-0.0143,-0.0145,-0.0215,-0.0216,-0.0216,0,0,0,0,0,0,0,0,0,0,0,0,0,-0.0083,-0.0083,-0.008,-0.008,-0.0081,-0.0089,-0.0089,-0.0089,-0.014,-0.0142,-0.0144,-0.0146,-0.0215,-0.0216,-0.0216,0,0,0,0,0,0,0,0,0,0,0,0,0,-0.0083,-0.0082,-0.008,-0.011,-0.0113,-0.0089,-0.0089,-0.0089,-0.014,-0.0142,-0.0144,-0.0146,-0.0215,-0.0215,-0.0216,-0.0174,0,0,-0.0218,-0.0218,0,0,0,0,0,0,0,0,-0.0083,-0.0082,-0.0105,-0.0108,-0.0111,-0.0119,-0.0116,-0.0122,-0.0139,-0.0126,-0.0145,-0.0148,-0.0189,-0.0192,-0.0183,-0.0177,-0.018,-0.0218,-0.0219,-0.0219,-0.0219,0,0,0,0,0,0,0,-0.0083,-0.0082,-0.008,-0.0105,-0.0109,-0.0115,-0.0117,-0.0117,-0.0143,-0.0127,-0.0132,-0.0137,-0.0191,-0.0182,-0.0185,-0.0181,-0.0218,-0.0219,-0.0219,-0.0219,-0.0245,-0.0246,0,0,0,0,0,0,-0.0087,-0.0082,-0.008,-0.0081,-0.0106,-0.0114,-0.0116,-0.0111,-0.0142,-0.0149,-0.0135,-0.014,-0.018,-0.0184,-0.0188,-0.0252,-0.0219,-0.0219,-0.022,-0.0245,-0.0245,-0.0246,0,0,0,0,0,0,-0.0086,-0.0086,-0.0079,-0.0085,-0.0085,-0.0112,-0.0105,-0.011,-0.012,-0.0148,-0.0156,-0.0144,-0.0182,-0.0187,-0.0209,-0.0251,-0.022,-0.022,-0.0245,-0.0245,-0.0246,-0.0308,0,0,0,0,0,0,-0.0086,-0.0085,-0.0083,-0.0085,-0.0085,-0.0063,-0.0104,-0.0109,-0.0121,-0.0127,-0.0157,-0.0165,-0.0184,-0.0207,-0.0209,-0.0252,-0.0221,-0.0244,-0.0245,-0.0245,-0.0306,-0.0311,-0.0315,0,0,0,0,0,-0.0086,-0.0061,-0.0082,-0.0083,-0.0081,-0.0062,-0.0061,-0.0087,-0.0119,-0.0107,-0.0147,-0.0165,-0.0213,-0.0207,-0.021,-0.0254,-0.0244,-0.0245,-0.0245,-0.0304,-0.031,-0.0315,0,0,0,0,0,0,-0.0056,-0.0064,-0.0088,-0.0067,-0.007,-0.0072,-0.0065,-0.0087,-0.0104,-0.0122,-0.0158,-0.0167,-0.0211,-0.0204,-0.0197,-0.0259,-0.0235,-0.0236,-0.0279,-0.0284,-0.0289,-0.0295,-0.0221,0,0,0,0,0,-0.005,-0.0039,-0.0049,-0.0035,-0.0036,-0.0054,-0.0054,-0.0071,-0.0087,-0.0098,-0.0126,-0.0161,-0.0207,-0.0223,-0.0244,-0.0259,-0.0257,-0.0289,-0.0294,-0.0298,-0.0302,-0.0328,-0.0336,-0.0248,-0.0248,-0.0248,0,0,-0.0037,-0.004,-0.0036,-0.003,-0.0036,-0.0043,-0.0058,-0.0052,-0.008,-0.0101,-0.014,-0.0174,-0.0213,-0.0254,-0.0272,-0.0259,-0.032,-0.0299,-0.0303,-0.0304,-0.0329,-0.0338,-0.0346,-0.0248,-0.0248,-0.0248,0,0,-0.001,-0.0006,0.0001,-0.0002,-0.0013,-0.0023,-0.0026,-0.0035,-0.0061,-0.009,-0.014,-0.0192,-0.0225,-0.0279,-0.0312,-0.0342,-0.0346,-0.035,-0.038,-0.0406,-0.0414,-0.0421,-0.0424,-0.0431,-0.035,-0.035,-0.035,0,-0.0003,-0.0002,0.0008,0.0005,-0.0009,-0.0021,-0.0032,-0.0047,-0.0071,-0.0095,-0.011,-0.0208,-0.0248,-0.0333,-0.0365,-0.0359,-0.0359,-0.0365,-0.0414,-0.0421,-0.0427,-0.0429,-0.0436,-0.0353,-0.0353,-0.0353,-0.0352,0,0.0016,0.0007,0.0017,-0.0007,-0.0007,-0.0008,-0.0037,-0.0047,-0.0087,-0.0118,-0.0192,-0.0246,-0.0305,-0.0341,-0.0377,-0.045,-0.0431,-0.0423,-0.0406,-0.0441,-0.0439,-0.0445,-0.0358,-0.0357,-0.0356,-0.0355,0,0,0.0038,0.0027,0.0022,-0.0001,-0.002,-0.0018,-0.0053,-0.0088,-0.0121,-0.0165,-0.0215,-0.033,-0.0353,-0.0391,-0.0439,-0.0482,-0.0545,-0.0479,-0.0479,-0.0493,-0.0587,-0.0542,-0.0544,-0.0548,-0.0549,-0.0551,-0.0568,0,0.0031,0.0015,0.0013,-0.0017,-0.0034,-0.0051,-0.0082,-0.0114,-0.0149,-0.0185,-0.0263,-0.0325,-0.0374,-0.0416,-0.047,-0.0524,-0.0564,-0.054,-0.0542,-0.0542,-0.0508,-0.0551,-0.0555,-0.0572,-0.0573,-0.0574,-0.0575,0,0.002,0.0014,-0.0017,-0.0046,-0.0053,-0.0073,-0.0117,-0.0142,-0.0191,-0.022,-0.0281,-0.0318,-0.0413,-0.0434,-0.0541,-0.0522,-0.0565,-0.0601,-0.0601,-0.0543,-0.0509,-0.0529,-0.0585,-0.0585,-0.0584,-0.0583,-0.0582,0,-0.0004,-0.002,-0.0049,-0.006,-0.0083,-0.0104,-0.0122,-0.0162,-0.0188,-0.0237,-0.0259,-0.0341,-0.0393,-0.0458,-0.0531,-0.0542,-0.0615,-0.0628,-0.0625,-0.062,-0.0627,-0.0619,-0.0698,-0.0698,-0.0698,-0.0697,-0.0697,0,-0.0036,-0.0058,-0.0063,-0.0081,-0.0108,-0.0121,-0.016,-0.0179,-0.0213,-0.0232,-0.0282,-0.0315,-0.0406,-0.0448,-0.0513,-0.0574,-0.0595,-0.0639,-0.0631,-0.065,-0.0645,-0.0631,-0.0623,-0.0698,-0.0698,-0.0698,-0.0698,0,-0.0073,-0.0085,-0.0109,-0.0122,-0.0128,-0.015,-0.0177,-0.0188,-0.0226,-0.0246,-0.0261,-0.031,-0.0368,-0.0428,-0.0518,-0.055,-0.0607,-0.062,-0.0613,-0.0601,-0.0602,-0.0597,-0.0635,-0.0634,-0.0633,-0.0632,-0.0632,0,-0.0098,-0.0114,-0.0128,-0.0128,-0.0137,-0.0163,-0.017,-0.0203,-0.0203,-0.0239,-0.0235,-0.0293,-0.0326,-0.0394,-0.048,-0.0561,-0.0582,-0.0592,-0.0641,-0.0613,-0.06,-0.0597,-0.0593,-0.063,-0.063,-0.0629,-0.0629,0,-0.0113,-0.0121,-0.012,-0.0124,-0.0134,-0.014,-0.0147,-0.0155,-0.017,-0.0211,-0.02,-0.0242,-0.0298,-0.037,-0.0418,-0.0489,-0.0576,-0.0582,-0.0586,-0.0633,-0.0606,-0.0594,-0.0592,-0.0626,-0.0626,-0.0626,-0.0627,0,-0.0104,-0.0103,-0.0095,-0.0101,-0.0102,-0.009,-0.0115,-0.0098,-0.0114,-0.014,-0.0136,-0.0202,-0.025,-0.0334,-0.0384,-0.0435,-0.048,-0.0494,-0.0504,-0.0509,-0.0473,-0.0421,-0.0385,0,0,0,0,0,-0.0087,-0.0069,-0.0061,-0.0061,-0.0059,-0.0063,-0.0067,-0.0085,-0.0114,-0.0085,-0.0105,-0.0144,-0.0229,-0.0282,-0.0327,-0.0402,-0.0505,-0.0458,-0.053,-0.0606,-0.061,-0.0586,0,0,0,0,0,0,-0.007,-0.0049,-0.0045,-0.0015,-0.0009,-0.0004,-0.0007,-0.0028,-0.0016,-0.0049,-0.0092,-0.0139,-0.0229,-0.0191,-0.0319,-0.0344,-0.0391,-0.0515,-0.0516,-0.0603,-0.0607,-0.061,-0.0587,0,0,0,0,0]}]]